FW8407 Weather Reports


time (UTC)temp
C
wind
direction
speed
KPH
gust
KPH
rain 1hr
cm
rain 24hr
cm
rain mn
cm
humidity
%
barometer
mb
20260504044502 10 32 1.6 8.0 0.00 0.00 0.00 70 995.2
20260504043022 10 348 3.2 19.3 0.00 0.00 0.00 69 995.1
20260504041534 10 41 3.2 16.1 0.00 0.00 0.00 68 994.9
20260504040046 11 357 4.8 17.7 0.00 0.00 0.00 68 994.7
20260504034614 11 51 6.4 27.4 0.00 0.00 0.00 65 994.4
20260504033016 15 344 6.4 29.0 0.00 0.00 0.00 52 993.9
20260504031529 18 328 16.1 24.1 0.00 0.00 0.00 36 992.4
20260504030043 19 310 20.9 33.8 0.00 0.00 0.00 34 992.2
20260504024551 18 280 16.1 25.7 0.00 0.00 0.00 33 992.0
20260504023002 18 279 11.3 22.5 0.00 0.00 0.00 33 991.8
20260504021527 19 260 12.9 19.3 0.00 0.00 0.00 32 991.6
20260504020036 20 273 8.0 17.7 0.00 0.00 0.00 32 991.7
20260504014600 20 272 12.9 22.5 0.00 0.00 0.00 31 992.0
20260504013052 20 265 11.3 24.1 0.00 0.00 0.00 30 992.3
20260504011605 21 278 14.5 25.7 0.00 0.00 0.00 29 992.8
20260504010021 22 305 19.3 30.6 0.00 0.00 0.00 27 993.1
20260504004538 22 291 22.5 38.6 0.00 0.00 0.00 25 993.3
20260504003058 22 304 22.5 41.8 0.00 0.00 0.00 25 993.7
20260504001508 22 293 27.4 48.3 0.00 0.00 0.00 25 993.8
20260504000028 23 275 29.0 41.8 0.00 0.00 0.00 27 994.1
20260503234546 23 291 25.7 48.3 0.00 0.00 0.00 26 994.3
20260503233049 23 303 25.7 41.8 0.00 0.00 0.00 27 994.7
20260503231604 23 305 24.1 46.7 0.00 0.00 0.00 27 995.0
20260503230020 23 275 24.1 46.7 0.00 0.00 0.00 28 995.2
20260503224517 23 296 25.7 46.7 0.00 0.00 0.00 28 995.5
20260503223019 23 275 19.3 41.8 0.00 0.00 0.00 30 995.7
20260503221531 22 273 20.9 51.5 0.00 0.00 0.00 29 995.8
20260503220049 22 281 22.5 51.5 0.00 0.00 0.00 30 996.4
20260503214544 22 300 20.9 41.8 0.00 0.00 0.00 30 996.7
20260503213052 22 303 29.0 43.5 0.00 0.00 0.00 29 997.1
20260503211548 22 291 22.5 51.5 0.00 0.00 0.00 30 997.5
20260503210105 22 303 25.7 43.5 0.00 0.00 0.00 29 998.0
20260503204510 22 287 24.1 53.1 0.00 0.00 0.00 29 998.2
20260503203025 22 300 24.1 48.3 0.00 0.00 0.00 30 998.5
20260503201524 22 291 25.7 45.1 0.00 0.00 0.00 29 998.9
20260503200028 22 283 19.3 40.2 0.00 0.00 0.00 31 999.3
20260503194531 21 279 16.1 43.5 0.00 0.00 0.00 32 999.6
20260503193036 21 275 19.3 41.8 0.00 0.00 0.00 34 1000.2
20260503191548 21 273 16.1 41.8 0.00 0.00 0.00 33 1000.4
20260503190007 21 291 16.1 41.8 0.00 0.00 0.00 32 1000.8
20260503184509 21 279 14.5 41.8 0.00 0.00 0.00 33 1001.1
20260503183012 20 338 19.3 43.5 0.00 0.00 0.00 32 1001.7
20260503181524 20 282 19.3 46.7 0.00 0.00 0.00 32 1002.0
20260503180027 20 287 19.3 33.8 0.00 0.00 0.00 32 1002.3
20260503174539 20 301 16.1 30.6 0.00 0.00 0.00 33 1002.6
20260503173050 20 287 20.9 43.5 0.00 0.00 0.00 33 1003.0
20260503171556 19 327 16.1 38.6 0.00 0.00 0.00 34 1003.4
20260503081513 2 336 4.8 8.0 0.00 0.00 0.00 71 1007.8
20260503071536 2 352 3.2 6.4 0.00 0.00 0.00 70 1007.7